Content
SEND FEEDBACK

Daily
Averages
Monthly
Summary
United States of America

BLACKLICK, OHIO


Home > North America > United States > Ohio
Elevation: 254 meters     Latitude: 40 00N     Longitude: 082 52W

WEATHER
 
SELECT A DAY
Number of Records: 205,679;   Date Range: 1/1/95 - 7/26/14
 
SHARE

PRINT THIS DATA

[ ← Previous Day ]
WEATHER ALMANAC - 13 FEBRUARY, 2013
[ Next Day → ]
[ °F ]   °C
Weather ElementAverageHighLow
Temperature-0.6 °C1 °C (2:24 pm)-3.3 °C (11:51 pm)
Dewpoint-2.9 °C-1.7 °C (12:51 pm)-4.4 °C (11:51 pm)
Humidity84.5 %93 % (12:01 pm)75 % (5:51 pm)
Barometer1009.8 hPa1012.9 hPa (10:51 pm)1007.1 hPa (2:24 pm)
Wind Speed9 km/h14.8 km/h (1:51 am)
Weather ElementAverage
Visibility8.9 km
Wind DirectionW (275.6 °)

Weather ElementTotal
Precipitation1.78 mm
Heating Degree Days19.5 (Base 18.3)
Averaged from 32 records on 13 February, 2013
WEATHER CONDITIONS BREAKOUT
WIND DIRECTION BREAKOUT
WEATHER BY HOUR - 13 FEBRUARY, 2013
[ °F ]   °C
Local TimeTemperatureDewpointHumidityBarometerVisibilityWind DirectionWind SpeedGust SpeedPrecipitationEventsConditions
1:51 AM-0.6 °C-3.9 °C79 %1012.5 hPa16.1 kmNorth (360°)14.8 km/hPartly Cloudy
2:51 AM-0.6 °C-3.9 °C79 %1011.9 hPa16.1 kmNorth (350°)9.3 km/hScattered Clouds
3:51 AM-1.1 °C-3.3 °C85 %1012.2 hPa16.1 kmNorth (350°)5.6 km/hMostly Cloudy
4:51 AM-1.1 °C-3.3 °C85 %1011.5 hPa12.9 kmNorth (350°)11.1 km/hMostly Cloudy
5:51 AM-1.7 °C-3.3 °C89 %1011.2 hPa11.3 kmNorth (10°)5.6 km/hOvercast
6:51 AM-1.1 °C-3.3 °C85 %1010.2 hPa11.3 kmNNE (20°)9.3 km/hOvercast
7:51 AM-1.1 °C-3.3 °C85 %1008.8 hPa9.7 kmNorth (10°)11.1 km/hOvercast
8:51 AM-0.6 °C-3.3 °C82 %1009.5 hPa8 kmNorth (350°)7.4 km/hHaze
9:51 AM-0.6 °C-3.3 °C82 %1010.2 hPa8 kmNNW (330°)9.3 km/hHaze
10:51 AM0 °C-2.8 °C82 %1010.2 hPa8 kmNorth (350°)9.3 km/hHaze
11:05 AM0 °C-3 °C80 %1009.5 hPa8 kmNNW (340°)5.6 km/hHaze
11:51 AM0 °C-2.8 °C82 %1009.8 hPa3.2 kmNNW (340°)5.6 km/h0 mmSnowLight Snow
12:01 PM-1 °C-2 °C93 %1008.8 hPa1.6 kmNNW (330°)7.4 km/h0.25 mmSnowLight Snow
12:43 PM-1 °C-2 °C93 %1008.1 hPa4 kmNW (320°)11.1 km/h0.76 mmSnowLight Snow
12:51 PM-0.6 °C-1.7 °C92 %1008.5 hPa4 kmNW (320°)7.4 km/h0.76 mmSnowLight Snow
12:58 PM-1 °C-2 °C93 %1007.5 hPa3.2 kmNW (320°)7.4 km/h0 mmSnowLight Snow
1:13 PM-1 °C-2 °C93 %1007.5 hPa6.4 kmNW (310°)5.6 km/h0 mmSnowLight Snow
1:29 PM0 °C-2 °C87 %1007.5 hPa6.4 kmNW (320°)11.1 km/h0 mmSnowLight Snow
1:41 PM0 °C-2 °C87 %1007.5 hPa6.4 kmNNW (330°)7.4 km/h0 mmOvercast
1:51 PM0 °C-2.2 °C85 %1007.8 hPa9.7 kmNNW (340°)11.1 km/h0 mmOvercast
2:24 PM1 °C-2 °C81 %1007.1 hPa8 kmNW (320°)11.1 km/hHaze
2:51 PM0.6 °C-2.2 °C82 %1008.1 hPa8 kmNW (310°)13 km/hHaze
3:51 PM0.6 °C-2.8 °C78 %1008.5 hPa8 kmNW (320°)13 km/hHaze
4:51 PM0.6 °C-2.8 °C78 %1008.8 hPa9.7 kmNNW (340°)11.1 km/hHaze
5:51 PM0.6 °C-3.3 °C75 %1009.5 hPa9.7 kmWest (270°)9.3 km/hHaze
5:58 PM1 °C-3 °C75 %1008.8 hPa9.7 kmWest (280°)11.1 km/hHaze
6:51 PM-0.6 °C-3.9 °C79 %1010.5 hPa12.9 kmWest (280°)7.4 km/hMostly Cloudy
7:51 PM-0.6 °C-3.3 °C82 %1011.5 hPa11.3 kmWSW (240°)7.4 km/hScattered Clouds
8:51 PM-1.7 °C-3.9 °C85 %1011.5 hPa11.3 kmSouth (180°)5.6 km/hPartly Cloudy
9:51 PM-2.2 °C-3.9 °C88 %1012.2 hPa8 kmSouth (190°)9.3 km/hPartly Cloudy
10:51 PM-2.8 °C-3.9 °C92 %1012.9 hPa8 kmSouth (180°)7.4 km/hPartly Cloudy
11:51 PM-3.3 °C-4.4 °C92 %1012.9 hPa6.4 kmSSE (160°)11.1 km/hPartly Cloudy
Hourly data recorded from KCMH, located 0 kilometers away from Blacklick, Ohio







STORIES FROM OUR PARTNERS